Location: Fisheating Creek Campgrounds
(26.9333°N, 81.3167°W)
Time: 13:14:54
(UTC-05:00)

Daily predictions for brighter satellites

Satellite Brightness Start Highest point End
(mag) Time Altitude Azimuth Time Altitude Azimuth Time Altitude Azimuth
Meteor 1-11 4.3 18:12:08 10° S 18:17:47 83° E 18:23:32 10° N
Cosmos 1634 Rocket 4.1 18:15:06 10° N 18:21:17 90° W 18:27:27 10° S
BREEZE-M DEB (TANK) 3.5 18:18:25 10° NW 18:22:43 82° NE 18:31:57 10° SE
Aureole 2 Rocket 4.1 18:20:10 10° SW 18:23:30 39° WNW 18:27:10 10° N
MSX 3.9 18:20:09 10° SSE 18:25:52 87° WSW 18:31:37 10° NNW
H-2A ROCKET BODY 4.3 17:34:30 10° WSW 18:26:02 89° NNW 18:32:53 10° E
Lacrosse 5 rocket 2.4 18:24:32 10° N 18:27:42 23° NE 18:31:01 10° ESE
Coronas F rocket 3.0 18:26:35 10° ESE 18:27:45 13° E 18:28:55 10° ENE
Cosmos 1626 2.5 18:26:51 10° SSE 18:30:23 43° E 18:33:57 10° NNE
YAOGAN 1 3.6 18:28:46 10° S 18:32:59 52° W 18:37:13 10° NNW
Palapa 6 Rocket 4.4 18:28:41 10° WSW 18:34:01 49° SSE 18:40:35 10° E
Cosmos 773 Rocket 4.3 18:29:38 10° S 18:34:30 45° ESE 18:39:26 10° NNE
Cosmos 304 Rocket 4.4 18:30:27 10° SSW 18:35:12 61° WNW 18:39:57 10° N
Cosmos 372 Rocket 3.9 18:31:04 10° N 18:36:09 67° ENE 18:41:12 10° SSE
Cosmos 1603 4.4 18:31:41 10° SSE 18:36:37 32° ESE 18:41:32 10° NE
OTV 4 0.5 18:34:43 10° NW 18:37:38 54° NNE 18:40:30 10° ESE
Cosmos 1707 Rocket 4.2 18:36:43 10° NNE 18:40:39 33° E 18:44:35 10° SSE
COSMO-SKYMED 1 3.3 18:37:16 10° N 18:41:32 57° WNW 18:45:46 10° SSW
CZ-4 R/B 4.2 18:39:52 10° SSW 18:42:54 22° W 18:45:57 10° NW
Cosmos 1666 Rocket 3.5 18:39:09 10° S 18:43:23 59° E 18:47:41 10° NNE
CCE 1 Rocket 4.2 18:43:18 10° SW 18:47:10 50° SSE 18:51:36 15° E
Resurs 01 Rocket 3.6 18:49:20 11° NE 18:49:20 11° NE 18:49:46 10° NE
Cosmos 1703 3.7 18:46:06 10° SSW 18:49:57 65° W 18:53:49 10° N
SJ-6B 3.7 18:46:42 10° SE 18:50:14 29° ENE 18:53:48 10° NNE
Cosmos 2278 Rocket 2.5 18:46:20 10° NNW 18:52:00 73° WSW 18:57:37 10° S
Cosmos 1726 4.1 18:49:24 10° NNW 18:52:49 33° W 18:56:13 10° SSW
ATLAS 2A CENTAUR R/B 2.8 18:52:33 10° S 18:54:12 16° SE 18:55:47 13° ESE
Cosmos 1455 2.8 18:51:28 10° NNE 18:54:56 34° E 18:58:26 10° SSE
Tiangong 1 1.3 18:58:33 10° WSW 19:01:29 56° NW 19:02:54 26° NE
GPS 2-17 Rocket1 4.1 19:04:49 10° WSW 19:08:46 34° S 19:11:27 18° ESE
SL-16 R/B 4.0 19:10:58 10° SW 19:15:53 31° WNW 19:20:50 10° N
Cosmos 1470 Rocket 3.6 19:12:06 10° S 19:16:22 54° E 19:19:23 18° NNE
Atlas Centaur 2 4.4 19:16:37 10° WSW 19:19:08 14° SW 19:21:24 10° S
Nadezhda 4 Rocket 4.4 19:13:46 10° SSW 19:19:57 67° W 19:26:13 10° N
ALOS 2.6 19:16:11 10° SE 19:20:31 40° ENE 19:24:52 10° N
USA 229 DEB 4.2 19:15:42 10° SW 19:22:24 58° WNW 19:29:11 10° NNE
USA 229 4.2 19:15:47 10° SW 19:22:29 59° WNW 19:29:17 10° NNE
Spot 2 Rocket 3.9 19:17:56 10° SE 19:22:34 38° ENE 19:27:12 10° N
Cosmos 2026 Rocket 4.2 19:18:02 10° SSE 19:23:56 46° E 19:29:03 14° NNE
Helios 1B rocket 3.1 19:25:45 36° ESE 19:25:45 36° ESE 19:29:00 10° SSE
Cosmos 2242 Rocket 3.5 19:22:35 10° N 19:26:58 61° E 19:31:22 10° SSE
Cosmos 292 Rocket 3.9 19:26:55 10° SSW 19:31:39 74° WNW 19:35:12 18° N
Iridium 4 Rocket 3.2 19:27:42 10° S 19:32:25 78° W 19:36:46 10° N
Cosmos 2297 4.0 19:30:13 10° NNW 19:35:53 67° WSW 19:41:34 10° S
NOSS 3-1 (A) 3.5 19:31:10 10° S 19:36:28 44° ESE 19:37:05 42° E
XTE 4.4 19:34:08 10° WSW 19:36:22 33° SSW 19:36:22 33° SSW
Cosmos 1869 3.2 19:36:18 10° N 19:40:22 89° E 19:44:24 10° S
Cosmos 1092 Rocket 4.4 19:35:06 10° SSW 19:41:20 63° W 19:47:37 10° N
Genesis I 3.4 19:37:32 10° SSW 19:40:52 60° S 19:40:52 60° S
FENGYUN 3A 3.5 19:40:17 10° SSE 19:45:36 76° ENE 19:50:59 10° N
Meteor 2-20 4.3 19:40:12 10° S 19:46:14 68° E 19:49:31 28° NNE
Cosmos 1680 Rocket 4.1 19:47:55 10° SSW 19:52:59 54° WNW 19:56:19 21° N
SL-19 R/B 4.4 19:47:26 10° SSE 19:53:31 82° WSW 19:59:14 10° NNW
Cosmos 1943 3.0 19:48:53 10° SSW 19:54:31 78° ESE 19:55:14 67° NE
Delta 2 Rocket 4.5 19:51:32 10° W 19:53:33 32° W 19:53:33 32° W
Intelsat 5-1 Rocket 3.2 20:03:11 10° WSW 20:05:57 39° SSW 20:05:57 39° SSW
Lacrosse 5 rocket 3.6 20:03:37 10° WNW 20:06:48 23° WSW 20:09:27 13° SSW
OTV 4 4.1 20:11:47 10° WSW 20:11:49 10° WSW 20:11:49 10° WSW
NOSS 3-1 (C) 3.7 20:09:11 10° SW 20:14:43 58° WNW 20:15:42 51° NNW
Palapa 6 Rocket 4.3 20:16:40 10° W 20:22:49 62° S 20:22:49 62° S
Resurs 01 Rocket 3.3 20:19:27 10° SSW 20:26:52 14° NW 20:27:37 10° NNW
USA 215 3.5 20:24:57 58° NNW 20:24:57 58° NNW 20:30:11 10° NW
Milstar 3 4.1 20:33:07 10° W 20:39:12 35° SSW 20:41:03 32° S
